AirNav   Phillips 66 Aviation Fuel
 
 1142 users online  

KRFG Rooke Field Airport
Refugio, Texas, USA

GOING TO REFUGIO?


FAA INFORMATION EFFECTIVE 20 JUNE 2019

Location

FAA Identifier: RFG
Lat/Long: 28-17-45.8400N / 097-19-34.9700W
28-17.764000N / 097-19.582833W
28.2960667 / -97.3263806
(estimated)
Elevation: 56 ft. / 17.1 m (surveyed)
Variation: 07E (1985)
From city: 3 miles W of REFUGIO, TX
Time zone: UTC -5 (UTC -6 during Standard Time)
Zip code: 78393

Airport Operations

Airport use: Open to the public
Activation date: 01/1945
Control tower: no
ARTCC: HOUSTON CENTER
FSS: SAN ANGELO FLIGHT SERVICE STATION
NOTAMs facility: SJT (NOTAM-D service available)
Attendance: 0800-1700
Wind indicator: yes
Segmented circle: yes
Lights: SS-SR
Beacon: white-green (lighted land airport)
Operates sunset to sunrise.

Airport Communications

CTAF/UNICOM: 122.8
WX AWOS-1 at T69 (19 nm SW): 118.25 (361-364-1844)
WX ASOS at RKP (20 nm SE): 119.275 (361-729-2372)

Nearby radio navigation aids

VOR radial/distance  VOR name  Freq  Var
CRPr006/24.4CORPUS CHRISTI VORTAC115.5009E
NGPr351/36.6TRUAX VORTAC114.0006E

 
NDB name  Hdg/Dist  Freq  Var  ID
MELLON RANCH273/6.437506EMNO -- -. ---

Airport Services

Fuel available: 100LL MOGAS
FUEL AVBL 24 HRS SELF SERVICE WITH CREDIT CARD.
Parking: hangars and tiedowns
Airframe service: MINOR
Powerplant service: MINOR
Bottled oxygen: NONE
Bulk oxygen: NONE

Runway Information

Runway 14L/32R

Dimensions: 4361 x 60 ft. / 1329 x 18 m
Surface: asphalt, in good condition
Weight bearing capacity: 
Single wheel: 9.0
Runway edge lights: medium intensity
Operational restrictions: RY LINE OF SIGHT LMTD BTN RY ENDS.
RUNWAY 14L  RUNWAY 32R
Latitude: 28-18.062667N28-17.435333N
Longitude: 097-19.757500W097-19.359167W
Elevation: 52.0 ft.54.0 ft.
Traffic pattern: leftright
Runway heading: 144 magnetic, 151 true324 magnetic, 331 true
Displaced threshold: no166 ft.
Markings: nonprecision, in fair conditionnonprecision, in fair condition
Visual slope indicator: 2-light PAPI on left (3.00 degrees glide path)
Obstructions: 11 ft. tree, 277 ft. from runway, 10 ft. left of centerline, 7:1 slope to clear32 ft. road, 669 ft. from runway, 166 ft. right of centerline, 14:1 slope to clear
APCH SLOPE 34:1 FM DSPLCD THLD TO +15 FT ROAD 513 FT FM DSPLCD THLD 176 FT LEFT.

Runway 14R/32L

Dimensions: 3000 x 100 ft. / 914 x 30 m
Surface: turf
RUNWAY 14R  RUNWAY 32L
Latitude: 28-18.004167N28-17.571667N
Longitude: 097-19.754167W097-19.481667W
Elevation: 56.0 ft.56.0 ft.
Traffic pattern: rightleft
Obstructions: 28 ft. trees, 966 ft. from runway, 168 ft. of centerline, 34:1 slope to clearnone

Airport Ownership and Management from official FAA records

Ownership: Publicly-owned
Owner: REFUGIO COUNTY
808 COMMERCE RM 104
REFUGIO, TX 78377
Phone 361-526-4434
COUNTY LEASES ARPT FM ROOKE FOUNDATION.
Manager: RUTH VANDERVLUGT
PO BOX 637
WOODSBORO, TX 78393
Phone 361-526-4241
CELL 361-533-1346.

Airport Operational Statistics

Aircraft based on the field: 24
Single engine airplanes: 12
Multi engine airplanes: 5
Helicopters: 1
Gliders airplanes: 6
    
Aircraft operations: avg 75/week *
77% local general aviation
23% transient general aviation
* for 12-month period ending 15 December 2016

Additional Remarks

RY 14R/32L SW OF RY 14L/32R FOR GLIDER OPNS ONLY.
SIMULTANEOUS PARALLEL RY OPNS NOT AUTHORIZED.
GLIDER ACTIVITY ON & INVOF ARPT.
WILDLIFE ON & INVOF AIRPORT.
FOR CD CTC HOUSTON ARTCC AT 281-230-5622.

Instrument Procedures

There are no published instrument procedures at KRFG.

Some nearby airports with instrument procedures:

TX2 - Chase Field Industrial Airport (18 nm W)
T69 - Alfred C 'Bubba' Thomas Airport (19 nm SW)
KRKP - Aransas County Airport (20 nm SE)
KTFP - McCampbell-Porter Airport (24 nm S)
KNGT - Goliad Naval Outlying Field (24 nm NW)
 
Loc | Ops | Rwys | IFR | FBO | Links
Com | Nav | Svcs | Stats | Notes
Area around KRFG (Rooke Field Airport)
 
Road maps at: MapQuest Bing Google
 
Aerial photo
WARNING: Photo may not be current or correct
Aerial photo of KRFG (Rooke Field Airport)
Do you have a better or more recent aerial photo of Rooke Field Airport that you would like to share? If so, please send us your photo.

 
Sectional chart

 
Airport distance calculator
Flying to Rooke Field Airport? Find the distance to fly.

From to KRFG

Sunrise and sunset
Times for 26-Jun-2019
 Local
(UTC-5)
 Zulu
(UTC)
Morning civil twilight06:0811:08
Sunrise06:3511:35
Sunset20:2901:29
Evening civil twilight20:5601:56

Current date and time
Zulu (UTC)  26-Jun-2019 23:42:44
Local (UTC-5)  26-Jun-2019 18:42:44
 
METAR
KRKP 
19nm SE 
262253Z AUTO 11013KT 6SM HZ SCT018 SCT023 30/26 A3001 RMK AO2 SLP165 T03000256
KTFP 
24nm S 
262315Z AUTO 13015G19KT 4SM HZ SCT020 SCT026 31/26 A3001 RMK AO2 T03120262 PNO
KBEA 
25nm W 
262315Z AUTO 12013KT 10SM CLR 35/20 A3001 RMK AO2 T03460195
KRAS 
32nm SE 
262315Z AUTO 10014KT 10SM CLR 30/27 A3003 RMK AO2 T03030266
KCRP 
33nm S 
262251Z 12011KT 10SM FEW020 SCT030 BKN042 BKN200 32/24 A2999 RMK AO2 SLP153 CB DSNT SW-W MOV NW T03220244
KRBO 
37nm SW 
262315Z AUTO 12014G20KT 10SM SCT030 31/24 A3000 RMK AO2 T03050237
KNGP 
37nm S 
262320Z 11016G23KT 10SM SCT016 SCT023 BKN250 31/27 A3000 RMK AO2 T03060267 $
TAF
KCRP 
33nm S 
261734Z 2618/2718 14015G22KT P6SM FEW035 SCT050 FM270200 12010KT P6SM FEW250 FM271100 13008KT P6SM SCT015
KNGP 
37nm S 
2615/2715 14012G18KT 9999 VCSH FEW015 SCT025 BKN150 QNH3002INS TEMPO 2615/2617 6000 SHRA BR BKN012 BKN020 OVC150 TEMPO 2617/2619 BKN018 BKN028 BKN150 FM261900 12015G22KT 9999 FEW020 SCT035 SCT150 QNH2997INS TEMPO 2619/2621 12018G25KT SCT018 BKN030 BKN150 FM270100 13014G20KT 9999 FEW012 SCT020 QNH2999INS TEMPO 2701/2703 SCT012 OVC018 FM270300 14013G19KT 9999 SCT012 OVC016 QNH3003INS FM271000 15010KT 9999 VCSH SCT015 SCT025 QNH3005INS TEMPO 2710/2715 16007KT BKN012 BKN020 T32/2619Z T27/2712Z FN200
KVCT 
40nm NE 
261734Z 2618/2718 14013KT P6SM SCT045 FM270200 10007KT P6SM FEW250 FM271200 12006KT P6SM SCT015
NOTAMs
Click for the latest NOTAMs
NOTAMs are issued by the DoD/FAA and will open in a separate window not controlled by AirNav.

 

 
 

FBO, Fuel Providers, and Aircraft Ground Support

  
 Business Name 
 
 Contact 
 
 Services / Description 
 
Fuel Prices
 
Comments
  
VanAir Aviation 361-526-4241
no information available

If you are affiliated with VanAir Aviation and would like to show here your services, contact info, web link, logo, and more, click here
100LL Mogas
SS $4.45 $4.25 
 Updated 18-Jun-2019
 
   1 read write
SS=Self service
Update Fuel Prices
 

Would you like to see your business listed on this page?

 If your business provides an interesting product or service to pilots, flight crews, aircraft, or users of the Rooke Field Airport, you should consider listing it here.  To start the listing process, click on the button below
 
Add a business
 

Other Pages about Rooke Field Airport

Update a link
 
Copyright © AirNav, LLC. All rights reserved. Privacy Policy  Contact